Date,TemperatureHighF,TemperatureAvgF,TemperatureLowF,DewpointHighF,DewpointAvgF,DewpointLowF,HumidityHigh,HumidityAvg,HumidityLow,PressureMaxIn,PressureMinIn,WindSpeedMaxMPH,WindSpeedAvgMPH,GustSpeedMaxMPH,PrecipitationSumIn
2013-3-22,43.5,35.9,31.8,18.9,16.0,13.2,56,45,29,29.96,29.93,2,0,2,0.02
2013-3-23,62.4,42.9,33.1,31.4,25.9,18.2,72,53,24,30.01,29.87,7,1,7,0.01
2013-3-24,41.7,37.5,34.2,35.9,32.3,27.8,93,82,68,29.90,29.52,12,1,12,0.96
2013-3-25,48.6,38.4,32.5,37.1,27.2,20.5,94,67,39,29.79,29.51,23,5,23,0.05
2013-3-26,34.9,34.5,33.6,23.6,23.1,20.6,65,63,58,29.81,29.79,5,3,5,0.00
2013-3-27,34.5,34.5,34.5,23.2,23.2,23.2,63,63,63,29.81,29.81,3,3,4,0.00
2013-3-28,34.5,34.5,34.5,23.2,23.2,23.2,63,63,63,29.81,29.81,3,3,4,0.00
2013-3-29,64.2,49.0,34.5,33.7,23.8,19.3,63,41,21,29.93,29.77,13,3,13,0.00
2013-3-30,72.5,53.1,35.1,36.4,31.1,24.6,71,47,19,29.84,29.68,12,2,12,0.00
2013-3-31,66.7,54.7,44.6,54.8,48.6,34.1,95,81,63,29.69,29.42,11,3,11,0.45
2013-4-1,68.4,58.7,43.7,54.4,45.7,34.6,97,66,43,30.01,29.45,11,2,11,0.04
2013-4-2,63.5,53.1,30.7,34.4,26.2,15.9,80,39,19,30.17,29.83,17,3,17,0.00
2013-4-3,65.5,53.7,32.7,23.8,19.6,13.1,48,27,17,30.07,29.92,10,2,10,0.00
2013-4-4,45.0,38.5,34.2,32.7,23.6,10.1,93,61,25,30.11,29.73,14,2,14,0.79
2013-4-5,72.3,54.0,34.2,47.9,39.1,26.2,99,63,20,29.81,29.67,17,2,17,0.05
2013-4-6,70.2,52.2,34.2,37.5,32.3,28.4,85,51,24,30.03,29.81,12,2,12,0.00
2013-4-7,72.9,57.3,37.6,45.9,40.1,12.2,86,55,32,30.02,29.88,21,4,21,0.00
2013-4-8,79.9,65.5,47.3,56.6,50.9,41.5,85,62,40,29.94,29.83,17,4,17,0.00
2013-4-9,87.3,72.1,55.4,59.3,53.9,47.2,84,55,34,29.97,29.86,13,3,13,0.00
2013-4-10,89.1,75.9,62.2,62.1,57.2,53.4,74,54,36,29.90,29.74,15,4,15,0.00
2013-4-11,82.2,71.9,60.4,62.9,58.5,54.2,84,64,45,29.77,29.57,15,6,15,0.00
2013-4-12,84.9,71.3,59.7,64.6,56.7,39.2,97,63,33,29.60,29.41,28,7,28,0.77
2013-4-13,78.8,63.2,42.4,46.1,38.4,29.3,75,43,19,29.81,29.60,11,2,11,0.00
2013-4-14,83.1,65.5,42.6,51.7,39.9,33.8,84,45,19,29.89,29.80,13,3,13,0.00
2013-4-15,70.7,60.2,54.3,58.2,54.2,49.9,95,81,63,30.00,29.81,9,2,9,0.19
2013-4-16,84.2,67.5,54.1,62.7,57.2,52.7,96,72,44,30.08,29.97,11,2,11,0.00
2013-4-17,87.3,70.0,57.0,63.4,58.2,53.9,92,68,40,30.01,29.91,9,2,9,0.00
2013-4-18,82.6,71.3,63.9,62.6,58.6,55.1,82,66,41,29.97,29.80,15,4,15,0.00
2013-4-19,77.5,68.1,56.8,65.9,61.4,47.0,93,79,65,29.81,29.52,21,7,21,0.33
2013-4-20,70.7,55.5,41.7,47.0,33.7,27.1,75,47,21,30.05,29.66,20,3,20,0.00
2013-4-21,63.9,50.2,39.0,39.7,34.6,29.9,76,57,35,30.25,30.05,14,3,14,0.00
2013-4-22,68.5,52.6,35.8,39.7,32.8,23.4,88,52,20,30.22,30.03,13,3,13,0.00
2013-4-23,73.0,57.3,46.0,51.8,45.3,39.1,86,66,43,30.06,29.89,9,2,9,0.01
2013-4-24,76.5,63.6,51.3,57.3,52.8,48.5,94,70,47,29.91,29.75,24,5,24,0.00
2013-4-25,78.6,61.1,42.1,55.4,39.0,26.5,76,48,16,30.07,29.80,11,2,11,0.00
2013-4-26,77.9,58.4,37.6,43.6,35.4,25.1,77,47,18,30.22,30.07,10,1,10,0.00
2013-4-27,70.7,59.8,51.6,51.9,47.9,41.9,90,66,45,30.14,30.04,8,2,8,0.00
2013-4-28,57.4,54.6,52.3,54.6,51.9,49.6,97,91,78,30.05,29.84,10,2,10,1.25
2013-4-29,79.2,60.2,53.2,63.9,56.3,52.7,98,88,57,29.84,29.76,7,1,8,0.30
2013-4-30,69.8,59.9,53.1,58.7,55.3,50.8,97,85,65,29.99,29.81,13,2,13,0.00
2013-5-1,66.2,58.7,53.2,57.0,54.0,51.6,95,85,71,30.11,29.97,13,3,13,0.00
2013-5-2,63.5,57.6,52.0,55.1,51.7,48.0,93,81,72,30.12,30.04,9,2,9,0.00
2013-5-3,70.9,58.7,46.6,53.3,49.6,43.2,97,74,50,30.05,29.95,14,3,14,0.00
2013-5-4,63.7,54.5,47.3,50.6,46.4,42.1,92,75,54,29.97,29.86,18,4,18,0.01
2013-5-5,54.7,51.7,48.2,52.4,48.1,43.0,93,87,81,29.88,29.74,13,5,13,0.14
2013-5-6,72.5,58.8,54.0,64.9,56.0,52.0,95,91,69,29.76,29.62,14,4,14,1.37
2013-5-7,71.4,59.2,52.2,61.8,53.8,47.8,97,84,49,29.74,29.65,12,2,12,0.18
2013-5-8,70.7,58.7,50.9,58.4,53.8,49.5,96,85,64,29.80,29.70,11,1,11,0.27
2013-5-9,86.2,66.6,47.7,61.6,55.1,47.1,98,71,38,29.86,29.77,16,2,16,0.00
2013-5-10,86.5,71.2,53.2,64.3,58.3,52.4,98,67,41,29.86,29.73,14,2,14,0.00
2013-5-11,82.6,71.9,61.0,63.2,60.1,58.3,94,68,47,29.75,29.60,13,3,13,0.26
2013-5-12,73.8,61.4,44.4,59.8,46.2,29.3,94,63,23,29.83,29.63,20,3,20,0.02
2013-5-13,70.7,54.6,36.9,47.2,35.3,25.4,96,55,22,29.97,29.83,12,2,12,0.00
2013-5-14,75.2,57.9,35.2,49.0,39.2,32.1,95,54,29,30.03,29.83,13,2,13,0.00
2013-5-15,92.1,75.0,56.3,64.3,56.7,44.0,72,54,37,29.84,29.70,14,4,14,0.00
2013-5-16,88.7,75.3,60.3,62.7,58.6,52.8,82,58,39,29.80,29.71,11,2,11,0.00
2013-5-17,90.7,75.2,56.7,65.2,60.0,54.3,94,63,36,29.89,29.79,8,1,8,0.00
2013-5-18,78.3,68.2,60.6,67.4,62.8,58.7,95,83,67,29.98,29.88,9,0,9,0.04
2013-5-19,77.7,68.9,64.0,68.3,64.6,60.8,95,86,70,29.93,29.85,10,1,10,0.09
2013-5-20,75.4,68.8,66.4,70.9,66.4,64.1,96,92,82,29.89,29.82,3,0,5,0.39
2013-5-21,93.4,75.6,66.6,70.4,67.6,65.1,97,79,45,29.83,29.74,9,1,9,0.00
2013-5-22,85.6,74.0,64.8,68.4,65.1,62.3,95,75,54,29.83,29.70,14,2,14,0.43
2013-5-23,80.8,69.4,62.4,68.3,64.4,59.6,97,85,62,29.76,29.62,11,1,11,0.18
2013-5-24,74.1,64.7,46.0,61.0,49.7,35.8,95,62,31,29.99,29.65,17,2,17,0.00
2013-5-25,80.2,61.0,41.9,46.4,38.7,27.6,91,50,19,30.07,29.93,14,1,14,0.00
2013-5-26,81.7,63.7,50.0,52.1,46.9,38.1,88,58,31,30.07,29.96,8,1,8,0.00
2013-5-27,83.8,67.8,49.8,59.7,53.7,48.5,96,65,40,30.07,29.93,11,2,11,0.00
2013-5-28,87.4,74.6,61.7,66.0,61.8,54.2,90,66,45,30.03,29.93,14,4,14,0.00
2013-5-29,88.7,75.6,60.4,66.6,62.0,57.1,91,65,43,30.03,29.96,11,3,11,0.00
2013-5-30,90.5,75.2,62.1,66.7,62.4,58.1,95,67,41,30.07,29.98,9,2,9,0.00
2013-5-31,88.7,76.3,61.7,68.7,64.2,58.4,93,69,44,30.02,29.91,11,2,13,0.00
2013-6-1,89.8,78.6,68.0,68.3,64.3,61.3,92,64,42,29.93,29.81,14,4,14,0.00
2013-6-2,83.5,74.3,68.4,68.8,65.7,62.7,95,76,57,29.84,29.71,14,4,14,0.54
2013-6-3,87.4,72.7,66.7,71.4,67.3,61.5,96,84,53,29.78,29.65,15,2,15,0.66
2013-6-4,79.2,68.0,60.3,65.5,62.3,58.8,98,83,59,29.90,29.76,10,1,10,0.01
2013-6-5,83.3,67.8,59.5,69.0,62.5,57.5,96,84,61,29.94,29.82,6,1,6,0.11
2013-6-6,74.1,69.0,64.4,71.0,66.9,62.2,96,93,88,29.83,29.61,12,3,12,1.09
2013-6-7,80.6,70.1,67.5,71.5,67.6,66.2,97,92,72,29.65,29.43,8,1,8,0.37
2013-6-8,90.0,74.7,60.8,67.9,64.9,59.4,98,75,42,29.90,29.63,13,1,13,0.35
2013-6-9,92.1,75.9,63.9,71.6,67.0,62.4,97,77,43,29.96,29.86,20,2,20,0.28
2013-6-10,83.7,73.4,68.4,74.1,68.8,64.9,95,86,67,29.90,29.68,19,4,19,0.38
2013-6-11,90.0,76.7,67.1,69.4,64.9,61.5,95,70,43,29.78,29.70,13,3,13,0.01
2013-6-12,95.0,80.8,62.6,74.9,68.1,60.0,93,67,47,29.79,29.68,9,2,9,0.00
2013-6-13,95.5,79.9,68.0,72.2,68.9,62.8,92,72,43,29.69,29.44,17,3,17,0.08
2013-6-14,86.9,72.4,59.2,62.7,57.4,52.7,88,61,40,29.84,29.58,13,2,14,0.00
2013-6-15,90.1,73.9,55.6,67.4,59.4,54.4,97,65,37,29.94,29.84,8,1,8,0.00
2013-6-16,89.6,77.2,65.8,68.0,64.1,59.5,85,65,45,29.93,29.81,14,3,14,0.00
2013-6-17,88.3,76.7,69.1,72.9,68.7,64.8,93,77,53,29.84,29.74,8,2,8,0.21
2013-6-18,85.1,72.9,67.8,72.2,68.4,65.0,96,86,61,29.78,29.61,13,2,13,0.37
2013-6-19,88.9,73.7,61.5,71.3,64.9,60.5,98,76,48,29.93,29.71,8,1,8,0.00
2013-6-20,88.2,72.4,62.6,68.3,64.1,61.2,97,77,48,30.06,29.93,8,1,8,0.00
2013-6-21,88.3,72.4,58.1,65.4,60.2,55.4,95,69,44,30.08,30.00,10,2,10,0.00
2013-6-22,89.1,72.8,59.7,70.2,64.5,55.5,93,77,52,30.04,29.93,8,1,8,0.00
2013-6-23,95.2,77.8,64.0,73.3,67.9,62.6,97,74,45,30.02,29.92,11,2,11,0.00
2013-6-24,93.0,79.1,69.6,74.3,69.9,66.7,94,75,49,30.02,29.90,13,3,13,0.02
2013-6-25,94.5,81.4,69.4,74.5,70.0,66.5,94,71,47,29.94,29.81,12,2,12,0.21
2013-6-26,94.5,76.9,67.3,73.1,68.6,64.2,94,78,47,29.85,29.71,17,2,17,0.34
2013-6-27,90.3,78.3,67.5,72.7,69.6,65.1,95,76,53,29.76,29.54,11,3,11,0.00
2013-6-28,94.5,79.8,69.1,72.4,69.6,66.6,94,74,46,29.58,29.41,13,2,13,0.21
2013-6-29,91.4,78.7,68.2,74.5,68.9,64.2,95,74,46,29.53,29.43,14,2,14,0.11
2013-6-30,90.1,75.9,69.1,73.0,69.3,66.7,94,81,48,29.67,29.51,11,3,11,0.21
2013-7-1,84.7,75.3,68.7,71.3,68.5,67.2,95,80,60,29.80,29.65,11,3,11,0.07
2013-7-2,80.2,74.1,71.1,71.5,69.0,67.4,93,84,73,29.97,29.79,15,5,15,0.07
2013-7-3,83.1,74.9,71.1,74.5,71.1,69.0,95,88,73,30.03,29.93,9,2,9,0.44
2013-7-4,88.2,77.3,70.9,74.1,70.6,68.0,94,81,54,30.06,29.99,15,4,15,0.40
2013-7-5,89.4,77.7,70.5,73.7,70.5,67.6,94,80,54,30.07,29.99,17,3,17,0.21
2013-7-6,92.1,77.8,68.9,73.1,69.8,67.1,95,78,49,30.06,29.92,11,2,11,1.19
2013-7-7,88.7,77.0,70.3,74.9,71.0,66.7,96,83,60,30.00,29.89,14,2,14,0.44
2013-7-8,95.4,81.5,69.6,73.9,70.1,67.1,95,71,45,29.99,29.91,7,1,7,0.21
2013-7-9,89.8,74.8,69.3,74.2,70.8,67.1,96,88,54,29.96,29.82,7,1,7,3.91
2013-7-10,92.7,79.6,70.7,74.2,70.7,68.4,94,76,53,29.94,29.78,11,3,11,0.00
2013-7-11,87.6,75.9,71.1,74.2,70.7,68.2,93,85,63,29.81,29.72,8,2,8,0.09
2013-7-12,84.2,72.9,67.3,70.0,67.1,64.0,94,83,58,29.88,29.73,10,1,10,0.01
2013-7-13,82.2,72.8,68.0,72.3,68.3,64.8,93,86,71,29.99,29.87,11,2,11,0.02
2013-7-14,90.5,78.2,71.6,73.3,70.0,67.4,91,77,52,30.15,29.99,11,4,11,0.02
2013-7-15,95.4,79.9,67.1,74.4,68.7,65.2,96,72,43,30.17,30.10,8,1,8,0.00
2013-7-16,101.1,83.3,65.8,78.6,70.0,64.7,96,68,41,30.13,30.04,8,1,8,0.00
2013-7-17,99.9,84.5,72.1,76.3,72.4,69.1,92,69,44,30.09,29.96,8,1,8,0.00
2013-7-18,101.5,84.8,70.9,78.6,72.9,69.0,95,71,43,30.00,29.88,7,1,7,0.00
2013-7-19,94.5,83.2,72.5,75.2,72.5,70.1,94,72,50,29.94,29.83,11,3,11,0.00
2013-7-20,91.4,78.3,73.0,74.8,71.5,66.9,91,80,57,29.88,29.78,10,2,10,0.05
2013-7-21,94.1,77.2,71.6,75.4,71.2,68.6,94,83,51,29.85,29.78,7,2,7,0.94
2013-7-22,89.2,77.7,70.3,74.7,70.8,68.7,96,81,54,29.82,29.68,10,2,10,0.01
2013-7-23,94.5,81.1,70.3,72.3,68.9,65.5,90,69,45,29.70,29.59,10,3,10,0.00
2013-7-24,98.6,81.7,68.7,72.3,68.5,65.1,89,67,41,29.73,29.60,8,1,8,0.00
2013-7-25,86.9,75.1,65.3,68.0,65.3,61.0,89,73,51,29.89,29.71,8,2,8,0.00
2013-7-26,89.6,75.3,63.5,70.2,64.4,61.3,96,72,45,29.97,29.87,8,1,8,0.00
2013-7-27,78.3,70.9,67.6,69.7,66.8,63.7,95,87,73,29.91,29.79,8,2,8,1.77
2013-7-28,90.1,76.8,68.4,71.9,68.4,65.5,95,77,50,29.84,29.76,8,2,8,0.00
2013-7-29,93.0,77.0,62.6,69.7,63.5,58.8,96,68,35,30.01,29.84,8,1,8,0.02
2013-7-30,89.8,74.8,60.1,68.3,62.5,56.3,91,68,43,30.08,29.99,8,1,8,0.00
2013-7-31,85.5,75.0,68.9,71.4,67.8,65.7,93,79,56,30.00,29.84,6,1,6,0.05
2013-8-1,95.9,78.0,70.0,74.6,69.6,67.5,93,78,45,29.84,29.71,8,2,8,0.06
2013-8-2,92.5,73.8,64.4,70.7,66.2,63.0,96,80,43,29.88,29.78,4,0,4,0.00
2013-8-3,93.9,76.4,67.6,75.3,69.5,65.5,95,81,48,29.87,29.77,8,1,8,0.00
2013-8-4,94.8,82.4,68.2,73.2,65.6,60.4,93,60,36,29.89,29.76,12,2,12,0.01
2013-8-5,85.5,73.7,62.8,69.7,63.8,57.9,88,72,54,29.94,29.83,11,2,11,0.00
2013-8-6,79.5,71.3,63.1,69.4,65.9,60.8,94,84,71,29.91,29.83,11,3,11,0.01
2013-8-7,86.0,75.3,68.5,71.0,67.7,65.9,93,78,57,29.94,29.86,10,2,11,0.00
2013-8-8,87.1,76.6,70.3,73.5,70.2,67.2,92,81,63,29.92,29.85,11,2,11,0.06
2013-8-9,95.9,80.6,72.9,76.3,72.1,70.1,92,77,47,29.90,29.83,11,3,11,0.06
2013-8-10,96.3,78.1,70.3,76.5,71.3,65.5,94,82,48,29.95,29.88,21,2,21,0.31
2013-8-11,97.5,79.6,69.4,77.1,71.7,68.3,96,79,47,29.97,29.87,7,1,7,0.01
2013-8-12,100.4,82.8,70.0,77.2,71.4,66.9,95,72,41,29.91,29.79,14,1,14,1.13
2013-8-13,93.9,75.5,70.0,75.4,70.7,67.0,96,86,52,29.81,29.65,9,2,9,0.67
2013-8-14,80.4,72.6,61.5,67.9,63.0,57.3,92,75,48,29.93,29.70,4,1,4,0.00
2013-8-15,75.4,66.5,54.9,57.6,56.9,53.1,94,73,54,30.01,29.93,3,1,3,0.00
2013-8-16,78.1,63.7,54.7,62.9,57.6,53.0,97,82,56,30.02,29.94,5,1,5,0.00
2013-8-17,67.6,62.3,58.1,63.1,59.8,56.7,96,91,83,30.04,29.98,8,1,8,1.93
2013-8-18,82.4,69.2,64.0,68.5,65.1,63.1,98,88,62,30.06,29.96,6,1,6,0.34
2013-8-19,79.2,69.4,64.4,72.2,66.0,63.3,97,89,69,30.03,29.94,4,1,4,0.32
2013-8-20,86.0,72.7,62.8,72.3,66.9,61.5,97,84,57,30.04,29.95,5,1,5,0.00
2013-8-21,90.9,75.9,67.6,75.8,70.3,66.2,96,84,54,30.07,29.94,6,1,6,0.04
2013-8-22,95.7,80.1,69.4,73.6,70.0,64.6,94,74,46,29.99,29.85,8,1,8,0.00
2013-8-23,91.6,76.3,63.1,73.1,67.3,61.4,95,76,51,29.95,29.79,9,2,9,0.25
2013-8-24,86.4,72.0,60.1,65.9,60.4,56.7,95,71,42,30.14,29.94,12,2,12,0.01
2013-8-25,86.7,69.8,57.2,66.5,59.7,55.7,97,73,47,30.23,30.12,8,1,8,0.00
2013-8-26,91.8,71.3,53.1,65.3,59.4,52.5,98,71,36,30.16,29.95,5,1,5,0.00
2013-8-27,97.3,78.6,64.9,73.1,67.2,59.7,91,70,44,29.97,29.82,11,2,11,0.00
2013-8-28,88.2,78.3,67.6,73.7,70.0,65.1,93,77,58,29.85,29.73,7,2,7,0.00
2013-8-29,93.7,77.6,71.8,74.6,69.7,67.4,87,78,54,29.86,29.72,8,1,8,0.00
2013-8-30,93.2,76.6,65.7,71.4,66.8,64.1,97,75,44,29.92,29.78,6,1,6,0.00
2013-8-31,91.6,76.6,67.8,73.2,68.4,65.6,94,77,52,29.81,29.72,11,2,11,0.01
2013-9-1,92.5,75.5,66.9,74.4,69.7,65.6,96,84,53,29.75,29.66,11,3,11,0.43
2013-9-2,93.7,78.4,68.0,75.3,70.5,66.8,96,79,48,29.75,29.66,7,2,7,0.14
2013-9-3,99.1,80.8,68.4,73.4,69.1,63.7,94,71,41,29.81,29.65,7,1,7,0.00
2013-9-4,95.7,74.5,60.6,69.2,63.1,58.8,94,71,40,29.94,29.81,7,1,7,0.00
2013-9-5,95.7,75.7,61.2,69.4,61.4,54.3,97,67,30,29.97,29.89,7,1,7,0.00
2013-9-6,86.2,68.3,59.0,61.7,58.3,55.2,93,73,43,30.05,29.94,6,1,6,0.00
2013-9-7,87.3,69.5,56.5,66.0,61.0,54.8,95,77,47,29.98,27.64,8,1,8,0.00
2013-9-8,96.3,81.6,63.3,71.3,67.4,61.3,93,65,43,29.84,29.77,8,1,8,0.00
2013-9-9,93.7,76.4,64.2,72.6,67.4,62.8,97,77,45,29.99,29.84,9,1,9,0.00
2013-9-10,92.7,77.5,65.7,72.3,68.3,64.5,96,77,47,30.07,29.98,7,1,7,0.00
2013-9-11,94.8,81.3,67.3,72.1,69.0,64.6,93,69,47,30.04,29.91,12,2,12,0.00
2013-9-12,83.3,71.0,69.6,71.7,68.2,67.2,94,91,68,29.91,29.67,8,1,8,0.26
2013-9-13,89.6,74.3,64.2,67.9,61.5,51.8,92,68,33,29.78,29.63,12,1,12,0.01
2013-9-14,83.1,65.3,53.2,57.4,52.2,48.4,95,65,40,29.97,29.77,26,1,26,0.00
2013-9-15,89.8,62.8,49.1,72.2,55.6,48.6,98,81,44,30.03,29.70,7,1,7,0.00
2013-9-16,90.7,71.3,59.4,70.9,61.3,57.4,96,74,42,30.01,29.79,8,1,8,0.00
2013-9-17,80.1,65.8,55.2,59.6,54.6,50.4,93,69,43,30.13,30.01,11,2,11,0.00
2013-9-18,80.4,63.1,50.9,57.0,53.0,48.4,93,72,43,30.11,29.97,7,1,7,0.00
2013-9-19,81.0,66.1,55.2,62.8,58.1,52.8,94,77,48,29.99,29.89,8,1,8,0.00
2013-9-20,82.8,69.8,62.6,68.5,64.4,60.0,95,84,61,29.89,29.76,9,2,9,0.01
2013-9-21,77.4,68.4,63.1,68.5,64.9,61.5,95,89,73,29.76,29.53,11,2,11,0.56
2013-9-22,86.0,68.3,56.3,61.7,57.8,54.0,97,73,37,29.72,29.54,11,1,11,0.01
2013-9-23,81.9,63.4,52.3,56.4,52.7,48.2,95,71,41,29.88,29.72,8,1,8,0.00
2013-9-24,84.0,64.5,51.8,61.1,56.2,50.4,97,78,44,29.89,29.75,8,1,8,0.00
2013-9-25,76.5,61.7,51.1,64.1,57.3,50.5,98,86,64,29.76,29.69,3,0,4,0.00
2013-9-26,81.9,65.0,53.4,61.8,56.1,49.3,97,76,34,29.85,29.70,10,1,10,0.00
2013-9-27,84.6,63.6,50.2,61.2,53.4,48.4,97,73,40,29.99,29.85,11,1,11,0.00
2013-9-28,75.0,60.3,50.2,61.3,52.5,48.7,98,78,48,30.07,29.98,11,1,11,0.00
2013-9-29,80.4,61.6,49.5,59.8,52.7,48.1,96,76,42,29.98,29.85,8,1,8,0.00
2013-9-30,85.8,63.2,48.7,60.7,53.4,48.0,98,75,36,29.90,29.80,11,1,11,0.00
2013-10-1,92.3,68.1,51.1,65.3,57.3,50.0,97,73,35,29.92,29.83,8,1,8,0.00
2013-10-2,93.0,70.7,54.0,65.9,58.5,52.9,97,71,33,29.95,29.86,8,1,8,0.00
2013-10-3,91.4,70.3,56.8,67.9,60.1,55.7,97,75,36,29.93,29.86,9,1,9,0.00
2013-10-4,97.0,73.3,56.8,68.0,61.2,55.4,95,70,34,29.95,29.86,8,1,8,0.00
2013-10-5,97.2,74.6,58.6,69.4,62.9,57.5,96,72,37,29.93,29.84,5,1,6,0.00
2013-10-6,88.2,72.2,59.7,67.6,62.3,57.7,94,74,46,29.85,29.72,17,2,17,0.00
2013-10-7,79.3,68.5,59.5,69.4,63.2,50.3,94,84,68,29.83,29.62,14,3,14,0.45
2013-10-8,72.5,59.7,52.9,50.8,47.6,44.3,81,65,43,30.02,29.82,14,2,14,0.00
2013-10-9,75.9,59.7,51.3,54.8,48.7,44.1,83,68,45,30.01,29.92,11,2,11,0.00
2013-10-10,70.2,60.2,53.4,60.4,54.2,45.9,94,81,69,29.93,29.76,12,1,12,0.05
2013-10-11,77.2,66.2,58.6,62.1,59.0,55.7,92,79,55,29.78,29.72,7,0,7,0.00
2013-10-12,89.8,63.6,55.6,72.2,59.9,53.6,93,88,54,29.95,29.77,5,1,5,0.01
2013-10-13,68.0,62.9,60.4,62.8,59.5,57.2,94,89,81,30.08,29.95,10,1,10,0.05
2013-10-14,66.4,60.7,55.9,60.4,57.3,53.1,95,89,78,30.10,30.03,8,1,8,0.05
2013-10-15,81.5,63.2,51.4,59.5,53.7,50.3,96,74,38,30.07,29.91,10,1,10,0.00
2013-10-16,85.5,66.1,54.7,63.1,56.9,52.1,93,74,45,29.93,29.80,6,1,6,0.00
2013-10-17,69.4,64.0,57.7,63.4,60.0,55.4,94,87,75,29.82,29.69,9,2,9,0.06
2013-10-18,77.7,60.5,46.9,61.9,51.7,46.0,98,77,37,29.90,29.74,6,1,6,0.00
2013-10-19,61.5,56.5,50.2,57.7,54.2,48.8,96,92,85,29.83,29.67,7,1,7,0.04
2013-10-20,72.3,48.0,38.7,53.4,39.8,37.0,97,77,31,29.95,29.76,5,1,5,0.00
2013-10-21,74.7,53.2,34.9,51.5,43.8,33.9,99,74,41,29.98,29.82,8,1,8,0.00
2013-10-22,73.4,59.4,52.0,57.3,52.1,47.6,93,78,46,29.83,29.64,7,1,7,0.00
2013-10-23,71.2,56.7,41.5,56.7,43.5,30.1,96,66,27,29.85,29.55,24,4,24,0.00
2013-10-24,62.8,45.5,29.8,39.5,31.7,26.5,92,62,32,30.00,29.84,12,2,12,0.00
2013-10-25,61.2,44.5,29.8,42.7,29.9,23.9,92,61,26,30.19,29.99,11,1,13,0.00
2013-10-26,62.6,44.5,23.9,39.1,28.1,20.4,90,57,25,30.17,29.89,12,2,12,0.00
2013-10-27,75.0,55.5,36.0,46.3,38.2,31.9,91,58,25,29.95,29.87,11,2,11,0.00
2013-10-28,74.3,55.5,41.9,54.2,48.0,40.0,95,79,43,30.10,29.94,10,1,10,0.00
2013-10-29,80.1,60.2,48.6,57.6,51.8,47.2,96,77,42,30.17,30.08,8,1,8,0.00
2013-10-30,83.3,62.1,52.2,59.8,53.4,49.9,93,76,43,30.11,29.99,9,2,9,0.00
2013-10-31,72.9,67.0,57.9,61.4,56.7,53.4,85,70,59,30.01,29.73,16,5,16,0.00
2013-11-1,70.5,65.0,56.5,64.5,59.8,54.3,95,84,71,29.73,29.52,21,5,21,0.27
2013-11-2,76.5,59.0,44.2,57.7,44.9,33.3,98,65,28,29.81,29.56,15,2,15,0.00
2013-11-3,71.6,50.8,35.6,43.6,34.7,30.5,90,59,23,30.19,29.81,16,1,16,0.00
2013-11-4,65.1,45.2,34.0,37.5,31.1,26.8,83,60,27,30.36,30.19,11,1,11,0.00
2013-11-5,61.3,46.3,32.2,47.5,37.0,25.8,90,71,50,30.37,30.25,7,1,7,0.00
2013-11-6,81.0,57.6,46.4,54.9,48.2,42.4,95,74,40,30.25,29.94,8,1,8,0.01
2013-11-7,71.1,53.9,34.7,57.0,45.1,27.9,97,75,37,29.96,29.80,17,2,17,0.00
2013-11-8,63.3,42.7,26.8,39.8,25.1,17.1,90,56,20,30.14,29.96,15,2,15,0.00
2013-11-9,59.7,44.5,26.2,37.3,26.7,20.9,84,54,26,30.18,29.99,11,2,11,0.00
2013-11-10,76.3,55.4,33.6,41.1,30.3,20.5,84,43,16,30.08,29.90,19,3,19,0.00
2013-11-11,70.0,46.8,27.1,37.0,25.7,20.9,82,48,18,30.16,29.96,8,1,8,0.00
2013-11-12,67.3,43.9,28.8,38.3,29.1,15.1,87,58,27,30.25,29.85,14,2,14,0.06
2013-11-13,57.7,34.1,19.6,20.5,14.2,8.1,75,48,20,30.35,30.23,15,1,15,0.00
2013-11-14,64.8,40.9,21.6,26.9,18.4,14.0,77,45,18,30.25,30.12,11,2,11,0.00
2013-11-15,61.3,45.8,27.7,47.2,31.6,18.5,92,61,25,30.16,30.02,11,1,11,0.01
2013-11-16,61.3,53.5,48.6,55.1,50.8,47.0,96,91,78,30.10,30.03,4,1,4,0.02
2013-11-17,66.2,59.4,54.7,63.0,56.6,53.0,97,91,77,30.05,29.71,14,3,14,0.08
2013-11-18,82.2,64.1,45.7,65.2,47.2,26.1,96,60,22,29.84,29.65,19,3,19,0.12
2013-11-19,67.1,49.3,36.1,31.4,26.1,18.8,63,43,19,30.12,29.83,13,1,13,0.00
2013-11-20,59.2,43.3,33.1,31.8,27.4,23.3,69,55,31,30.27,30.11,12,2,12,0.00
2013-11-21,62.1,47.5,38.8,44.1,37.9,29.2,81,70,52,30.31,30.21,8,1,8,0.00
2013-11-22,64.8,55.9,46.2,56.6,50.3,42.0,94,81,72,30.22,29.92,12,2,12,0.01
2013-11-23,68.9,53.9,37.8,56.4,37.9,11.7,96,60,22,30.02,29.89,15,2,15,0.00
2013-11-24,47.5,33.8,23.0,19.0,4.2,-8.0,48,29,20,30.32,30.01,15,2,15,0.00
2013-11-25,43.9,29.1,15.1,17.6,3.7,-4.1,63,35,21,30.36,30.22,8,2,8,0.00
2013-11-26,89.8,39.1,36.1,70.9,37.9,1.0,99,97,22,30.19,29.58,72,8,72,0.32
2013-11-27,43.2,37.1,25.9,42.6,30.0,10.1,99,78,46,30.33,29.71,72,4,72,0.32
2013-11-28,52.5,31.5,17.8,21.7,14.0,8.8,75,51,23,30.60,30.33,6,1,6,0.00
2013-11-29,61.7,36.9,20.5,31.3,19.9,15.2,83,56,22,30.76,30.58,8,1,8,0.00
2013-11-30,57.0,39.6,24.8,28.3,11.2,-48.1,75,46,1,30.79,30.51,56,9,56,0.00
2013-12-1,63.0,53.7,20.7,32.2,4.6,-48.1,87,26,1,30.51,30.18,56,18,56,0.00
2013-12-2,61.9,37.3,0.0,27.6,27.6,27.6,27,16,27,30.18,29.99,2,1,2,0.00
2013-12-3,51.1,51.1,51.1,46.4,46.4,46.4,84,84,84,30.15,30.12,4,2,4,0.00
2013-12-4,92.5,78.4,69.6,73.3,69.6,66.5,94,76,50,30.15,30.03,8,2,8,0.02
2013-12-5,94.3,78.1,69.4,73.7,69.7,67.1,94,78,46,30.07,29.93,5,2,5,0.21
2013-12-6,89.8,72.1,66.7,72.2,62.5,59.9,93,72,54,29.96,29.87,24,7,24,0.00
2013-12-7,69.3,49.0,40.6,62.8,44.1,33.3,97,84,68,30.34,29.91,8,1,11,0.41
2013-12-8,40.6,33.7,31.3,33.5,29.4,25.5,93,84,64,30.34,30.15,6,1,10,0.12
2013-12-9,89.8,37.5,31.8,70.9,36.1,30.0,97,95,54,30.16,29.81,4,1,5,0.20
2013-12-10,54.7,41.6,35.2,40.4,37.2,19.2,97,87,45,30.02,29.71,8,1,17,0.25
2013-12-11,52.9,41.4,30.4,26.7,21.1,15.4,70,47,24,30.21,30.04,6,1,9,0.00
2013-12-12,54.9,35.8,23.4,24.9,14.8,2.7,72,46,20,30.17,30.04,6,0,15,0.00
2013-12-13,89.8,36.2,21.0,70.9,17.1,8.5,76,50,21,30.13,29.70,6,1,11,0.00
2013-12-14,39.9,36.5,34.9,34.7,31.2,26.3,90,81,67,29.94,29.44,6,0,8,0.52
2013-12-15,54.9,40.3,26.8,43.4,31.1,20.3,95,72,42,29.74,29.38,9,1,16,0.01
2013-12-16,62.2,42.5,25.5,35.6,28.4,19.8,84,60,29,29.83,29.72,6,1,10,0.00
2013-12-17,66.0,47.4,31.5,37.4,32.1,27.2,86,59,31,29.78,29.54,13,2,19,0.00
2013-12-18,55.9,39.6,26.2,28.2,16.8,8.1,70,42,21,29.93,29.71,6,1,11,0.00
2013-12-19,68.0,45.8,25.3,27.7,20.7,14.9,68,41,16,29.96,29.85,8,2,14,0.00
2013-12-20,66.7,53.6,38.3,50.4,39.7,27.3,80,60,43,29.90,29.79,9,2,15,0.00
2013-12-21,72.0,60.6,48.0,62.0,54.2,46.0,95,80,61,29.81,29.69,10,2,18,0.00
2013-12-22,71.6,65.6,60.1,66.4,61.3,56.3,93,86,74,29.76,29.65,11,4,21,1.02
2013-12-23,63.3,56.0,39.9,60.7,52.5,32.0,93,88,72,29.85,29.68,8,2,15,0.67
2013-12-24,52.7,38.4,25.3,32.0,21.7,7.3,75,52,27,30.09,29.83,11,1,17,0.00
2013-12-25,51.3,28.4,17.1,17.3,8.0,-0.3,67,45,20,30.17,30.00,5,0,11,0.00
2013-12-26,57.4,34.1,18.9,25.4,17.5,9.8,75,53,26,30.00,29.88,5,1,8,0.00
2013-12-27,60.8,37.2,22.5,33.9,18.2,14.2,80,51,20,30.10,29.99,4,0,5,0.00
2013-12-28,59.7,39.9,22.8,39.9,25.8,16.0,92,62,23,30.03,29.79,4,0,7,0.07
2013-12-29,42.1,40.7,40.3,39.7,39.1,38.9,95,94,90,29.80,29.39,3,0,5,0.26
2013-12-30,40.5,40.5,40.5,39.1,39.1,39.1,95,95,95,29.80,29.59,0,0,1,0.00
2013-12-31,41.5,39.2,29.5,39.1,34.0,17.2,95,84,41,30.01,29.77,2,0,3,0.47
2014-1-1,54.5,36.6,26.2,29.0,22.3,16.9,81,59,25,30.04,29.79,6,1,9,0.00
2014-1-2,44.4,39.2,33.1,39.8,34.3,26.3,93,83,69,29.79,29.29,4,0,5,0.27